Date,TemperatureHighF,TemperatureAvgF,TemperatureLowF,DewpointHighF,DewpointAvgF,DewpointLowF,HumidityHigh,HumidityAvg,HumidityLow,PressureMaxIn,PressureMinIn,WindSpeedMaxMPH,WindSpeedAvgMPH,GustSpeedMaxMPH,PrecipitationSumIn
2013-1-1,34.0,29.8,21.0,34.0,29.0,18.8,100,97,90,30.27,30.06,21,6,21,0.01
2013-1-2,30.0,22.3,14.0,20.5,16.9,11.9,94,80,58,30.33,30.24,9,3,9,0.00
2013-1-3,39.0,26.5,16.0,29.5,23.1,15.1,100,88,66,30.45,30.27,10,2,10,0.00
2013-1-4,41.0,31.2,20.0,34.0,27.8,19.0,100,88,67,30.52,30.40,14,3,14,0.00
2013-1-5,42.0,35.4,25.0,36.3,31.8,24.3,100,87,71,30.42,30.22,15,4,16,0.00
2013-1-6,39.0,34.2,25.0,37.4,31.0,22.9,100,88,71,30.43,30.16,22,7,22,0.00
2013-1-7,43.0,31.1,19.0,31.5,26.2,19.0,100,83,60,30.51,30.23,13,4,13,0.00
2013-1-8,55.0,42.0,29.0,37.7,32.8,25.1,92,72,46,30.31,30.19,16,5,16,0.00
2013-1-9,59.0,49.8,42.0,50.6,43.0,37.0,95,78,60,30.46,30.23,14,4,14,0.01
2013-1-10,66.0,55.0,46.0,64.2,53.3,39.3,100,94,69,30.45,29.87,39,9,39,1.21
2013-1-11,62.0,58.5,55.0,60.8,54.2,49.9,97,86,70,30.01,29.87,23,9,23,0.03
2013-1-12,71.0,63.0,45.0,68.4,62.4,45.0,100,98,88,29.98,29.68,29,7,29,1.90
2013-1-13,46.0,44.7,44.0,45.0,44.7,44.0,100,100,100,29.81,29.78,21,12,21,0.15
2013-1-16,34.0,31.1,29.0,29.3,27.7,25.6,94,87,74,30.19,30.11,10,4,10,0.01
2013-1-17,45.0,33.9,25.0,37.9,29.5,23.7,99,84,72,30.53,30.13,31,6,31,0.00
2013-1-18,46.0,35.1,22.0,32.8,27.5,21.3,99,75,54,30.59,30.30,21,6,21,0.00
2013-1-19,57.0,47.0,37.0,40.1,35.1,27.6,81,64,50,30.31,30.06,32,11,32,0.00
2013-1-20,44.0,37.2,26.0,38.5,24.9,14.8,96,64,33,30.34,30.14,18,5,18,0.00
2013-1-21,32.0,25.6,20.0,20.1,13.4,5.6,78,60,42,30.39,30.26,31,9,31,0.00
2013-1-22,23.0,19.4,15.0,6.4,2.4,-1.9,65,47,37,30.52,30.39,19,3,19,0.00
2013-1-23,44.0,30.2,17.0,31.4,19.4,3.0,88,65,47,30.41,30.17,17,5,17,0.00
2013-1-24,33.0,26.8,19.0,25.6,13.2,7.4,76,57,41,30.60,30.28,25,9,25,0.00
2013-1-25,41.0,31.8,26.0,29.4,23.3,8.3,92,72,41,30.28,30.13,19,4,19,0.00
2013-1-26,44.0,33.6,24.0,33.0,24.5,18.7,100,72,40,30.41,30.26,14,3,14,0.00
2013-1-27,53.0,38.2,29.0,48.9,35.6,19.3,100,91,64,30.36,30.10,19,7,21,0.18
2013-1-28,64.0,59.2,52.0,62.2,56.9,48.0,100,92,79,30.12,30.03,27,11,29,0.08
2013-1-29,72.0,65.1,54.0,64.9,60.9,52.2,99,87,75,30.04,29.42,50,16,50,0.72
2013-1-30,57.0,45.4,31.0,54.2,41.8,22.4,100,88,70,29.96,29.42,39,15,39,0.91
2013-1-31,39.0,30.8,18.0,33.0,22.9,8.6,98,73,61,30.36,29.96,29,14,34,0.01
2013-2-1,25.0,18.7,10.0,16.6,8.2,1.6,72,63,52,30.58,30.34,29,7,31,0.00
2013-2-2,41.0,33.3,25.0,32.7,24.8,15.9,84,71,60,30.34,30.10,21,7,21,0.00
2013-2-3,40.0,34.0,27.0,32.9,26.7,20.5,96,75,54,30.20,30.02,27,7,27,0.00
2013-2-4,48.0,38.5,28.0,41.7,33.4,22.9,99,83,52,30.12,29.89,23,8,26,0.01
2013-2-5,53.0,40.2,28.0,43.5,36.7,27.8,100,88,58,30.13,29.95,20,5,20,0.00
2013-2-6,52.0,41.8,30.0,38.7,32.6,29.0,99,72,44,30.29,30.12,18,4,19,0.00
2013-2-7,65.0,52.5,38.0,54.8,44.6,28.8,100,75,59,30.13,29.89,24,6,25,0.26
2013-2-8,48.0,38.6,32.0,47.2,34.5,27.7,97,85,71,30.40,29.97,30,11,30,0.00
2013-2-9,47.0,38.9,31.0,35.7,30.7,26.7,87,73,55,30.42,30.09,15,6,15,0.00
2013-2-10,58.0,52.4,46.0,57.2,46.9,34.1,98,82,61,30.09,29.73,40,12,42,0.43
2013-2-11,55.0,46.6,39.0,54.2,33.8,28.4,97,62,42,30.19,29.87,26,9,26,0.00
2013-2-12,50.0,41.0,28.0,40.6,32.2,28.0,100,74,48,30.20,29.89,14,3,14,0.00
2013-2-13,46.0,40.0,34.0,40.1,36.6,33.5,100,88,72,29.98,29.86,18,6,19,0.13
2013-2-14,58.0,46.0,36.0,44.2,39.3,33.0,100,79,58,30.07,29.93,20,7,20,0.01
2013-2-15,43.0,37.5,27.0,34.7,26.3,16.1,89,65,39,30.26,30.07,23,6,24,0.00
2013-2-16,36.0,28.4,22.0,21.7,14.9,7.9,89,59,35,30.27,30.20,21,6,21,0.00
2013-2-17,46.0,33.2,16.0,26.8,20.8,10.8,91,62,42,30.28,30.07,19,6,19,0.00
2013-2-18,59.0,48.4,38.0,50.2,40.1,23.7,97,74,47,30.07,29.68,48,15,48,0.42
2013-2-19,43.0,35.5,25.0,39.0,22.3,13.3,90,61,33,30.31,29.90,31,12,31,0.00
2013-2-20,31.0,25.5,21.0,19.3,15.7,12.7,82,66,54,30.42,30.29,15,5,15,0.00
2013-2-21,34.0,29.1,23.0,34.0,24.4,17.3,100,83,60,30.33,29.83,24,6,25,0.95
2013-2-22,46.0,37.2,31.0,39.5,34.6,27.0,100,91,75,30.11,29.83,24,9,24,0.06
2013-2-23,43.0,33.3,25.0,29.9,26.2,23.0,96,76,53,30.11,29.98,13,3,14,0.00
2013-2-24,51.0,37.3,22.0,31.1,26.9,20.8,98,69,42,30.18,30.03,14,4,14,0.00
2013-2-25,55.0,45.3,34.0,37.6,30.1,25.5,76,56,39,30.07,29.52,29,11,31,0.07
2013-2-26,49.0,43.6,38.0,49.0,41.3,34.8,100,92,78,29.70,29.35,30,12,30,0.57
2013-2-27,39.0,36.8,32.0,35.0,32.5,29.0,93,84,70,29.93,29.70,20,12,22,0.00
2013-2-28,38.0,34.1,32.0,34.0,30.8,27.4,100,88,78,30.13,29.92,15,9,19,0.01
2013-3-1,37.0,32.7,30.0,35.7,32.2,29.2,100,98,91,30.15,30.07,20,8,20,0.08
2013-3-2,32.0,30.0,29.0,29.8,25.8,18.2,99,84,61,30.24,30.13,24,10,24,0.01
2013-3-3,39.0,31.6,21.0,27.5,21.5,18.0,91,68,48,30.24,30.10,15,4,16,0.00
2013-3-4,57.0,46.2,36.0,41.1,30.5,24.3,74,55,42,30.13,29.80,24,7,25,0.01
2013-3-5,49.0,38.9,31.0,44.3,34.9,22.5,100,86,64,30.09,29.76,39,13,39,0.11
2013-3-6,42.0,34.8,31.0,30.3,26.8,24.3,84,73,60,30.37,30.09,31,12,31,0.00
2013-3-7,46.0,35.1,25.0,31.3,27.7,23.3,96,76,54,30.45,30.35,10,3,11,0.00
2013-3-8,56.0,41.8,27.0,33.1,29.3,25.2,95,65,37,30.49,30.25,18,5,18,0.00
2013-3-9,68.0,53.5,42.0,38.5,34.2,28.9,67,49,31,30.28,29.96,23,8,24,0.00
2013-3-10,67.0,57.5,50.0,56.4,47.6,36.6,100,73,48,29.97,29.73,39,13,40,0.31
2013-3-11,52.0,40.5,34.0,52.0,37.1,30.0,100,88,77,30.05,29.75,24,10,24,0.00
2013-3-12,51.0,40.3,30.0,31.7,28.2,21.8,88,64,37,30.23,30.03,24,8,24,0.00
2013-3-13,42.0,34.5,27.0,27.2,21.3,17.1,79,59,42,30.46,30.23,30,10,31,0.00
2013-3-14,44.0,33.8,21.0,35.3,27.1,18.8,95,78,48,30.46,30.14,18,4,18,0.03
2013-3-15,73.0,56.4,35.0,54.1,43.7,28.5,82,64,47,30.14,29.77,28,8,28,0.00
2013-3-16,68.0,56.4,41.0,54.9,46.5,37.1,87,70,55,30.02,29.76,29,11,29,0.00
2013-3-17,42.0,39.0,36.0,42.0,38.7,35.8,100,99,87,30.10,29.75,23,8,23,1.17
2013-3-18,50.0,44.1,38.0,47.2,42.0,35.6,100,93,75,30.04,29.67,31,8,32,0.44
2013-3-19,51.0,41.3,30.0,38.4,23.5,15.6,95,53,27,30.24,30.04,20,5,21,0.00
2013-3-20,41.0,33.8,26.0,33.2,23.8,14.4,89,67,47,30.27,30.12,27,8,31,0.00
2013-3-21,40.0,30.3,19.0,21.0,17.1,11.7,89,60,38,30.16,30.01,17,4,17,0.00
2013-3-22,41.0,37.0,32.0,27.9,23.4,19.7,65,58,48,30.08,30.00,13,5,13,0.00
2013-3-23,54.0,46.1,39.0,43.4,33.5,25.5,94,62,48,30.03,29.76,18,7,20,0.04
2013-3-24,45.0,37.6,31.0,43.4,37.0,30.4,100,98,87,29.80,29.47,34,12,34,0.16
2013-3-25,36.0,32.5,31.0,33.4,30.2,27.0,100,91,81,30.21,29.80,31,15,31,0.00
2013-3-26,42.0,35.0,29.0,31.4,27.8,24.0,97,76,54,30.40,30.20,20,6,20,0.01
2013-3-27,49.0,37.9,22.0,33.4,27.5,21.5,100,69,45,30.46,30.34,14,3,14,0.00
2013-3-28,58.0,48.3,38.0,38.6,33.5,29.0,76,58,43,30.42,30.28,12,4,12,0.00
2013-3-29,56.0,49.0,40.0,52.2,46.0,35.8,100,90,58,30.31,30.22,13,4,13,0.11
2013-3-30,56.0,47.3,38.0,50.2,46.0,38.0,100,95,77,30.24,29.93,12,4,13,0.35
2013-3-31,63.0,54.8,49.0,55.6,50.5,47.6,100,87,63,30.00,29.89,14,4,15,0.00
2013-4-1,53.0,46.3,36.0,48.9,34.5,25.6,97,65,40,30.25,29.95,22,5,22,0.00
2013-4-2,48.0,39.9,30.0,29.8,23.2,17.2,91,54,30,30.36,30.24,16,3,16,0.00
2013-4-3,52.0,43.9,32.0,27.5,23.9,19.9,67,46,32,30.40,30.22,23,7,23,0.00
2013-4-4,56.0,47.0,39.0,37.2,29.4,22.4,81,51,39,30.22,30.04,13,4,13,0.00
2013-4-5,70.0,53.1,32.0,42.7,36.4,31.5,100,59,29,30.18,30.07,23,3,23,0.00
2013-4-6,73.0,61.8,48.0,46.0,40.9,35.9,68,48,31,30.12,29.90,29,9,30,0.00
2013-4-7,72.0,65.1,59.0,59.6,53.0,43.2,80,65,50,30.02,29.92,22,9,23,0.00
2013-4-8,75.0,67.9,61.0,61.6,57.2,52.3,80,69,56,29.99,29.85,29,10,29,0.00
2013-4-9,80.0,71.8,63.0,67.6,63.0,56.3,84,74,61,30.05,29.90,26,10,26,0.00
2013-4-10,84.0,76.3,64.0,70.3,66.6,62.7,100,73,57,29.96,29.71,32,12,32,0.65
2013-4-11,68.0,55.6,42.0,67.4,54.4,35.7,100,96,78,29.82,29.63,23,8,24,0.67
2013-4-12,60.0,46.7,38.0,42.5,37.0,32.4,90,71,42,30.09,29.80,27,8,27,0.00
2013-4-13,64.0,51.0,34.0,45.1,39.0,30.3,91,65,44,30.15,29.97,13,3,14,0.00
2013-4-14,75.0,63.3,52.0,55.3,48.1,41.8,73,59,38,29.98,29.79,32,10,33,0.00
2013-4-15,80.0,69.1,59.0,64.8,59.1,52.3,87,71,54,29.98,29.85,23,9,23,0.00
2013-4-16,85.0,70.2,61.0,74.1,66.0,60.2,100,87,63,30.12,29.93,21,6,23,0.11
2013-4-17,83.0,72.2,59.0,76.2,67.3,59.0,100,86,67,30.13,29.85,27,6,27,0.73
2013-4-18,80.0,69.6,44.0,69.6,62.7,41.5,100,80,57,29.85,29.64,38,16,38,2.00
2013-4-19,50.0,43.8,39.0,41.5,34.3,29.5,91,70,53,30.14,29.78,27,11,30,0.00
2013-4-20,61.0,48.2,33.0,41.2,35.1,31.4,100,65,35,30.37,30.14,14,3,14,0.00
2013-4-21,65.0,53.2,40.0,39.9,33.9,26.5,73,50,24,30.46,30.29,18,6,18,0.00
2013-4-22,73.0,60.7,44.0,50.1,43.4,33.0,72,54,37,30.30,30.07,18,6,19,0.00
2013-4-23,74.0,64.2,45.0,63.7,55.1,44.7,99,73,57,30.10,29.88,37,11,37,0.13
2013-4-24,52.0,44.0,38.0,44.7,39.3,34.9,100,85,55,30.33,29.96,26,7,26,0.27
2013-4-25,65.0,51.3,35.0,45.2,40.0,34.5,100,69,41,30.41,30.30,14,4,15,0.00
2013-4-26,52.0,50.6,49.0,51.5,45.8,38.5,100,84,65,30.49,30.32,18,4,18,0.44
2013-4-27,60.0,55.1,50.0,60.0,55.1,50.0,100,100,99,30.33,29.93,26,4,26,0.46
2013-4-28,60.0,56.9,54.0,59.0,55.6,53.7,100,95,87,30.00,29.92,16,6,16,0.01
2013-4-29,74.0,62.6,49.0,61.7,56.6,49.0,100,82,60,30.05,29.91,16,6,16,0.00
2013-4-30,82.0,70.6,57.0,63.0,58.0,54.4,92,67,44,30.03,29.92,15,6,15,0.00
2013-5-1,82.0,71.9,62.0,67.1,61.0,54.7,87,69,51,30.14,30.02,15,4,15,0.00
2013-5-2,74.0,68.2,62.0,63.2,60.3,57.1,99,77,59,30.20,30.06,16,4,16,0.10
2013-5-3,73.0,58.7,42.0,62.7,56.0,42.0,100,92,66,30.06,29.81,30,8,30,0.85
2013-5-4,53.0,45.3,41.0,43.5,41.3,38.2,100,87,61,30.02,29.90,14,4,14,0.37
2013-5-5,58.0,50.7,41.0,56.2,50.3,41.0,100,98,91,29.99,29.88,14,4,14,0.22
2013-5-6,65.0,58.1,53.0,60.1,56.9,52.7,100,96,81,29.98,29.86,20,5,21,0.04
2013-5-7,74.0,63.3,51.0,64.3,59.1,51.0,100,87,61,30.06,29.96,13,3,13,0.01
2013-5-8,82.0,69.7,55.0,66.2,57.8,52.0,100,70,39,30.09,30.00,16,3,16,0.00
2013-5-9,81.0,72.8,62.0,66.8,62.3,59.1,95,71,49,30.08,29.93,31,8,32,0.00
2013-5-10,78.0,68.3,58.0,68.7,64.1,56.3,100,87,61,30.02,29.86,21,7,22,1.15
2013-5-11,73.0,60.4,51.0,60.0,51.4,38.5,98,74,49,30.18,29.99,24,6,27,0.01
2013-5-12,64.0,52.8,42.0,42.2,36.4,28.0,94,58,30,30.26,30.17,22,4,25,0.00
2013-5-13,71.0,57.1,38.0,52.4,41.0,33.6,100,61,31,30.30,30.13,16,4,16,0.00
2013-5-14,87.0,73.0,56.0,62.5,56.5,44.2,77,57,41,30.13,29.94,26,10,26,0.00
2013-5-15,85.0,76.3,68.0,65.2,59.4,54.9,71,57,43,30.08,29.95,24,10,26,0.00
2013-5-16,82.0,73.8,67.0,66.3,62.4,57.7,84,68,53,30.04,29.94,19,6,20,0.00
2013-5-17,74.0,68.9,64.0,68.9,65.2,61.2,100,88,77,30.04,29.96,18,5,19,0.04
2013-5-18,82.0,73.5,65.0,70.2,67.9,65.0,100,84,63,30.05,29.95,11,3,11,0.00
2013-5-19,90.0,80.2,71.0,77.9,72.0,67.6,100,78,54,29.98,29.86,22,8,23,0.00
2013-5-20,89.0,80.7,73.0,73.8,71.1,65.9,93,74,49,29.99,29.83,27,11,27,0.00
2013-5-21,80.0,71.2,66.0,72.7,67.6,63.8,100,89,64,29.95,29.79,36,10,37,0.79
2013-5-22,79.0,71.0,65.0,67.0,64.2,60.0,100,81,54,29.91,29.76,24,10,26,0.21
2013-5-23,73.0,64.6,54.0,65.4,57.1,49.0,98,78,58,30.22,29.91,27,8,29,0.00
2013-5-24,71.0,58.3,46.0,49.4,45.2,37.1,95,65,31,30.41,30.22,19,4,21,0.00
2013-5-25,76.0,63.0,45.0,56.8,50.3,45.0,100,67,39,30.39,30.18,13,3,14,0.00
2013-5-26,83.0,72.1,60.0,63.9,59.2,54.1,83,65,45,30.25,30.09,14,4,14,0.00
2013-5-27,86.0,76.9,67.0,70.5,63.3,58.1,76,63,47,30.11,29.93,27,9,27,0.00
2013-5-28,88.0,79.3,72.0,72.2,66.8,60.2,85,67,51,30.04,29.94,33,12,34,0.00
2013-5-29,89.0,79.1,68.0,69.8,64.8,59.4,76,62,46,30.09,29.95,24,10,25,0.00
2013-5-30,86.0,78.5,71.0,74.8,69.9,64.4,95,75,59,30.05,29.92,40,12,40,0.03
2013-5-31,82.0,76.3,71.0,76.3,72.5,68.9,98,88,73,30.01,29.85,31,11,31,0.19
2013-6-1,80.0,68.2,63.0,74.4,66.9,61.1,100,96,70,30.02,29.76,37,9,37,3.81
2013-6-2,76.0,69.6,64.0,68.7,63.6,60.1,100,82,63,30.02,29.93,19,6,19,0.00
2013-6-3,74.0,65.6,59.0,62.7,58.6,55.0,99,80,54,30.11,30.00,14,3,14,0.00
2013-6-4,79.0,68.7,54.0,63.5,59.4,53.5,99,74,53,30.12,30.00,14,4,14,0.00
2013-6-5,86.0,75.4,64.0,68.9,63.9,59.1,95,70,43,30.02,29.84,14,3,14,0.38
2013-6-6,82.0,74.8,67.0,70.2,66.0,62.3,99,76,53,29.86,29.79,17,5,17,0.02
2013-6-7,79.0,71.1,63.0,65.3,63.0,57.3,97,77,55,29.93,29.61,21,6,23,0.00
2013-6-8,81.0,71.5,58.0,67.9,60.3,54.2,100,71,40,30.03,29.91,14,3,14,0.00
2013-6-9,77.0,71.5,66.0,73.8,67.4,61.1,99,87,72,30.02,29.83,18,5,19,0.03
2013-6-10,83.0,73.7,66.0,72.2,67.5,63.8,100,83,57,29.97,29.85,20,6,21,0.05
2013-6-11,96.0,80.7,62.0,78.0,71.1,62.0,100,75,48,30.04,29.93,19,4,19,0.00
2013-6-12,96.0,87.3,78.0,78.5,74.7,70.7,88,68,48,30.06,29.84,28,10,29,0.00
2013-6-13,86.0,78.9,68.0,75.2,68.3,61.5,87,71,52,30.00,29.82,32,9,32,0.00
2013-6-14,84.0,73.0,60.0,64.3,61.6,57.3,100,70,46,30.12,29.99,19,3,19,0.00
2013-6-15,89.0,77.3,63.0,69.2,64.7,59.2,99,69,38,30.15,30.00,15,4,15,0.00
2013-6-16,88.0,78.7,71.0,74.5,71.0,67.2,100,79,55,30.06,29.96,13,4,13,0.00
2013-6-17,89.0,74.5,68.0,77.5,71.9,68.0,100,93,58,29.99,29.89,35,4,36,1.03
2013-6-18,87.0,75.5,65.0,72.5,68.8,65.0,100,82,55,30.01,29.87,35,4,35,0.39
2013-6-19,88.0,77.0,66.0,74.2,69.8,66.0,100,81,51,30.09,30.00,12,2,12,0.00
2013-6-20,90.0,80.2,68.0,75.5,71.0,67.4,100,76,48,30.17,30.08,17,3,18,0.00
2013-6-21,92.0,82.5,73.0,76.0,72.5,70.0,95,73,51,30.21,30.10,16,5,17,0.00
2013-6-22,91.0,80.8,70.0,74.5,70.8,66.8,92,74,47,30.19,30.04,26,6,28,0.00
2013-6-23,89.0,79.3,70.0,73.7,70.8,66.7,99,77,53,30.16,30.04,22,5,23,0.00
2013-6-24,92.0,79.1,71.0,77.8,73.3,67.5,98,83,53,30.17,30.04,19,5,19,0.00
2013-6-25,92.0,84.5,77.0,78.5,75.6,72.9,95,76,58,30.08,29.89,20,9,20,0.00
2013-6-26,92.0,82.6,73.0,78.7,74.9,71.3,100,79,58,29.97,29.76,27,10,29,1.31
2013-6-27,94.0,84.0,74.0,79.7,74.8,69.2,100,77,46,29.91,29.83,21,5,21,0.03
2013-6-28,91.0,81.4,70.0,76.5,69.4,61.5,99,70,41,29.90,29.71,26,6,26,0.00
2013-6-29,86.0,74.0,65.0,67.7,63.9,57.8,99,73,46,29.76,29.67,34,6,36,0.09
2013-6-30,78.0,69.3,62.0,71.5,66.8,62.0,100,92,70,29.88,29.73,19,4,19,0.31
2013-7-1,72.0,68.0,65.0,68.8,66.9,64.7,100,97,87,29.94,29.84,22,5,22,0.03
2013-7-2,73.0,67.4,64.0,70.5,65.6,62.7,100,94,84,30.06,29.89,19,7,21,0.00
2013-7-3,82.0,71.4,64.0,68.6,65.7,62.5,100,84,56,30.14,30.04,12,3,12,0.00
2013-7-4,83.0,73.0,63.0,73.8,68.6,63.0,100,87,63,30.12,30.03,13,4,16,0.00
2013-7-5,82.0,75.1,70.0,72.8,70.7,68.4,100,87,67,30.13,30.05,11,3,11,0.00
2013-7-6,85.0,74.6,66.0,75.1,71.2,66.0,100,90,63,30.14,30.03,22,4,24,1.03
2013-7-7,89.0,77.1,64.0,78.7,71.1,64.0,100,84,53,30.17,30.08,11,3,12,0.01
2013-7-8,91.0,82.0,72.0,78.7,74.9,71.7,100,81,55,30.18,30.07,10,4,12,0.00
2013-7-9,94.0,85.1,75.0,80.9,76.9,74.1,98,78,57,30.14,30.00,17,6,17,0.00
2013-7-10,89.0,82.9,77.0,79.7,76.3,69.9,98,81,56,30.04,29.92,16,4,17,0.00
2013-7-11,85.0,77.3,65.0,76.7,69.6,61.5,100,79,50,30.06,29.96,17,3,18,0.00
2013-7-12,84.0,73.3,62.0,68.1,63.1,57.4,97,73,47,30.13,30.04,19,4,21,0.00
2013-7-13,84.0,74.3,61.0,68.4,64.5,60.7,100,74,48,30.11,30.02,17,4,17,0.00
2013-7-14,87.0,76.1,66.0,76.1,72.1,65.4,100,89,64,30.17,30.06,15,4,18,0.02
2013-7-15,88.0,80.9,73.0,79.9,76.0,73.0,100,86,65,30.27,30.15,18,4,18,0.00
2013-7-16,92.0,82.3,72.0,78.5,75.0,72.0,100,80,55,30.35,30.26,11,2,11,0.00
2013-7-17,95.0,84.4,73.0,81.8,76.7,73.0,100,80,54,30.37,30.21,10,2,10,0.00
2013-7-18,93.0,83.6,74.0,81.1,77.5,74.0,100,83,60,30.23,30.07,13,3,13,0.00
2013-7-19,90.0,82.1,73.0,78.5,75.2,72.3,100,81,58,30.11,29.95,16,5,17,0.00
2013-7-20,91.0,81.0,71.0,80.1,75.0,69.2,100,84,56,30.02,29.84,26,6,28,0.87
2013-7-21,86.0,75.1,69.0,79.1,73.8,69.0,100,96,77,30.02,29.89,18,2,18,0.59
2013-7-22,87.0,78.8,72.0,79.5,75.6,72.0,100,91,70,29.92,29.83,13,5,14,0.24
2013-7-23,91.0,80.1,70.0,79.8,75.3,68.1,100,86,64,29.94,29.79,21,6,23,0.00
2013-7-24,82.0,73.5,65.0,71.0,67.0,61.4,100,82,58,30.04,29.86,16,3,16,0.00
2013-7-25,82.0,70.3,59.0,68.5,62.6,59.0,100,79,50,30.13,30.03,17,2,18,0.00
2013-7-26,82.0,70.6,56.0,72.8,66.0,56.0,100,87,56,30.12,29.99,13,2,13,0.00
2013-7-27,81.0,72.4,62.0,73.1,66.7,57.1,100,84,56,30.02,29.92,16,4,17,0.00
2013-7-28,78.0,67.8,52.0,63.7,58.6,52.0,100,75,47,30.10,30.01,10,2,11,0.00
2013-7-29,79.0,70.5,58.0,70.5,64.4,58.0,100,82,57,30.21,30.09,9,2,10,0.00
2013-7-30,74.0,70.2,66.0,74.0,69.4,62.7,100,97,86,30.19,30.05,15,4,15,0.68
2013-7-31,85.0,77.5,71.0,79.4,74.8,71.0,100,92,73,30.06,29.96,18,2,18,0.00
2013-8-1,86.0,75.7,66.0,74.4,69.6,64.9,100,83,52,30.10,30.01,14,2,14,0.00
2013-8-2,85.0,74.4,61.0,74.8,68.6,61.0,100,84,57,30.07,29.97,13,3,13,0.00
2013-8-3,85.0,76.9,73.0,79.8,75.0,70.5,100,94,77,30.11,29.95,11,3,11,0.71
2013-8-4,82.0,74.2,67.0,74.0,67.2,62.0,100,80,56,30.19,30.09,14,3,14,0.00
2013-8-5,76.0,69.8,65.0,71.4,67.7,64.1,100,93,74,30.12,29.95,14,3,14,0.23
2013-8-6,84.0,76.1,71.0,79.1,74.3,71.0,100,95,82,29.99,29.90,10,2,10,0.02
2013-8-7,84.0,75.0,74.0,76.0,74.9,72.1,100,100,76,29.95,29.88,23,5,23,3.20
2013-8-8,84.0,75.2,69.0,81.4,74.6,69.0,100,98,81,30.02,29.90,16,2,20,0.35
2013-8-9,85.0,77.7,72.0,80.8,76.5,62.9,100,96,82,30.08,29.93,52,0,52,1.29
2013-8-10,85.0,77.7,72.0,78.4,74.8,71.9,100,91,69,30.15,30.05,10,1,10,0.11
2013-8-11,89.0,79.8,71.0,77.8,74.3,71.0,100,85,62,30.16,30.09,10,1,10,0.00
2013-8-12,87.0,77.2,72.0,82.3,75.8,69.9,100,96,75,30.10,29.93,32,3,35,0.44
2013-8-13,83.0,75.6,66.0,76.5,71.3,64.8,100,88,65,30.09,29.95,17,4,17,0.00
2013-8-14,74.0,65.0,52.0,65.1,56.6,50.0,97,76,51,30.19,30.09,19,4,19,0.00
2013-8-15,71.0,59.9,49.0,55.5,52.0,48.2,99,77,51,30.16,30.06,15,3,15,0.00
2013-8-16,72.0,62.3,52.0,62.5,56.7,47.6,100,83,60,30.14,30.07,16,3,16,0.00
2013-8-17,74.0,62.9,58.0,67.2,60.9,39.0,100,94,75,30.20,30.08,21,3,21,1.30
2013-8-18,76.0,64.3,58.0,69.2,62.6,57.0,100,95,74,30.18,30.10,14,1,14,0.00
2013-8-19,81.0,67.7,55.0,69.5,63.2,55.0,100,87,61,30.16,30.05,10,1,10,0.00
2013-8-20,84.0,71.5,60.0,71.8,66.3,60.0,100,85,59,30.15,30.07,7,1,8,0.00
2013-8-21,84.0,73.2,61.0,73.2,67.8,61.0,100,85,58,30.19,30.08,9,1,9,0.00
2013-8-22,87.0,74.7,64.0,73.5,69.2,63.0,100,85,57,30.16,30.03,11,1,12,0.00
2013-8-23,84.0,74.2,65.0,74.4,69.9,65.0,100,88,65,30.13,30.04,14,2,14,0.00
2013-8-24,83.0,73.0,63.0,70.8,66.2,62.3,100,81,57,30.24,30.10,14,3,14,0.00
2013-8-25,83.0,72.2,61.0,74.4,67.7,59.7,98,86,64,30.32,30.21,12,3,12,0.00
2013-8-26,83.0,74.2,67.0,73.1,69.6,65.9,100,86,67,30.29,30.13,15,4,15,0.00
2013-8-27,83.0,74.3,66.0,73.5,69.9,65.1,99,87,69,30.16,29.89,13,4,14,0.00
2013-8-28,85.0,75.4,66.0,73.7,68.2,62.0,99,80,54,30.10,30.01,13,4,14,0.00
2013-8-29,88.0,76.5,66.0,74.7,69.6,64.2,100,81,55,30.07,29.98,10,2,11,0.00
2013-8-30,89.0,77.5,65.0,75.4,70.3,65.0,100,81,51,30.03,29.89,11,3,11,0.00
2013-8-31,88.0,79.7,68.0,76.3,72.5,66.3,97,80,59,29.93,29.80,21,5,29,0.76
2013-9-1,78.0,73.8,65.0,72.5,70.0,64.3,100,88,75,29.92,29.79,24,6,24,0.00
2013-9-2,81.0,71.6,64.0,74.5,66.7,60.0,100,86,58,29.96,29.86,16,3,16,0.00
2013-9-3,79.0,67.8,58.0,66.1,60.4,55.5,99,79,50,30.09,29.95,12,3,12,0.00
2013-9-4,77.0,65.2,54.0,62.9,58.3,54.0,100,81,51,30.19,30.08,11,2,11,0.00
2013-9-5,78.0,65.4,51.0,66.8,59.5,51.0,100,83,54,30.23,30.14,10,2,11,0.00
2013-9-6,81.0,69.4,57.0,68.2,62.6,57.0,100,81,51,30.21,30.08,14,2,14,0.00
2013-9-7,82.0,70.4,56.0,71.2,64.2,56.0,100,83,56,30.11,29.97,16,3,16,0.00
2013-9-8,83.0,72.3,62.0,71.4,67.9,61.4,100,87,68,30.02,29.93,10,2,10,0.00
2013-9-9,87.0,77.7,70.0,73.3,71.1,68.8,98,81,59,30.05,29.97,13,4,13,0.00
2013-9-10,85.0,75.2,69.0,75.8,70.5,63.8,97,86,61,30.18,30.03,17,3,17,0.39
2013-9-11,89.0,74.4,67.0,73.6,69.1,64.0,100,85,57,30.20,30.08,18,2,18,0.00
2013-9-12,82.0,71.4,62.0,73.2,66.2,59.7,100,85,63,30.09,29.96,24,2,24,0.04
2013-9-13,70.0,61.2,51.0,59.7,52.0,47.4,92,73,49,30.11,30.02,20,3,21,0.00
2013-9-14,68.0,55.2,44.0,51.2,46.6,40.7,100,76,45,30.18,29.81,17,3,17,0.00
2013-9-15,75.0,59.1,42.0,58.4,50.8,42.0,100,77,46,30.14,30.06,13,3,13,0.00
2013-9-16,70.0,62.4,58.0,62.8,58.4,52.2,99,87,72,30.23,30.11,13,2,13,0.00
2013-9-17,77.0,64.8,55.0,62.5,58.8,55.0,100,83,55,30.24,30.10,12,3,13,0.00
2013-9-18,80.0,69.3,60.0,69.8,65.3,58.6,99,88,66,30.15,30.03,13,4,13,0.00
2013-9-19,81.0,72.7,66.0,71.4,67.9,65.1,98,86,69,30.10,29.96,19,7,19,0.00
2013-9-20,71.0,68.5,62.0,69.1,65.5,62.0,100,90,79,29.99,29.85,18,5,19,0.67
2013-9-21,68.0,58.7,50.0,62.0,50.9,42.6,100,78,47,29.94,29.62,23,5,23,0.20
2013-9-22,70.0,56.7,44.0,54.1,48.5,43.2,100,77,45,30.02,29.67,16,3,16,0.00
2013-9-23,71.0,57.8,45.0,55.0,49.8,44.2,100,77,50,30.06,29.94,14,3,14,0.00
2013-9-24,74.0,60.5,50.0,66.1,58.3,48.5,100,93,74,29.98,29.83,14,4,14,0.43
2013-9-25,76.0,64.7,58.0,67.0,61.8,58.0,100,91,65,29.90,29.81,13,2,13,0.01
2013-9-26,78.0,65.4,55.0,68.0,60.0,55.0,100,85,56,30.04,29.89,11,2,12,0.00
2013-9-27,76.0,63.4,53.0,60.6,54.9,50.7,100,77,44,30.15,30.04,13,3,13,0.00
2013-9-28,76.0,65.3,53.0,60.7,56.1,52.2,99,75,47,30.15,30.04,20,6,20,0.00
2013-9-29,64.0,59.6,58.0,60.0,57.6,54.4,100,94,71,30.08,30.00,14,5,14,1.31
2013-9-30,59.0,59.0,59.0,59.0,59.0,59.0,100,100,100,30.01,29.98,6,1,6,0.00
2013-10-1,68.0,65.3,63.0,66.5,65.0,63.0,100,99,95,30.07,30.03,6,2,7,0.00
2013-10-2,76.0,67.1,62.0,70.5,65.4,62.0,100,95,76,30.11,30.04,16,4,21,0.05
2013-10-3,79.0,70.4,64.0,67.3,64.0,61.6,100,82,58,30.08,29.96,18,7,18,0.00
2013-10-4,81.0,70.9,64.0,70.2,66.9,63.1,100,88,65,30.08,29.98,16,6,17,0.00
2013-10-5,78.0,68.5,63.0,71.7,67.1,62.7,100,96,74,30.04,29.86,26,6,27,2.13
2013-10-6,63.0,54.9,45.0,63.0,47.6,39.8,100,79,49,30.00,29.85,26,6,26,0.92
2013-10-7,62.0,50.0,40.0,47.5,43.5,38.1,100,80,54,30.17,29.95,18,1,18,0.00
2013-10-8,65.0,52.6,40.0,50.2,43.2,39.6,100,74,42,30.23,30.12,18,1,18,0.00
2013-10-9,73.0,57.3,43.0,60.5,52.3,41.5,100,85,60,30.20,30.09,11,1,11,0.00
2013-10-10,74.0,61.1,50.0,64.2,57.0,50.0,100,88,59,30.19,30.03,10,0,11,0.00
2013-10-11,75.0,63.2,53.0,61.5,56.1,52.5,100,80,47,30.08,29.99,16,1,16,0.00
2013-10-12,69.0,61.5,55.0,63.2,58.9,54.2,100,92,78,30.17,30.01,11,1,11,0.01
2013-10-13,71.0,58.3,47.0,56.0,47.3,40.2,100,71,36,30.34,30.17,19,1,19,0.01
2013-10-14,67.0,54.8,44.0,56.3,48.8,39.8,93,81,67,30.31,30.10,10,0,10,0.00
2013-10-15,66.0,61.1,58.0,62.4,60.1,55.1,100,97,86,30.11,29.95,21,4,21,0.15
2013-10-16,62.0,52.5,43.0,62.0,48.5,43.0,100,87,63,30.06,29.95,21,0,21,0.01
2013-10-17,59.0,48.2,42.0,48.5,43.9,41.0,100,86,56,30.04,29.97,16,0,16,0.14
2013-10-18,64.0,51.0,39.0,50.5,43.6,39.0,100,79,44,30.09,29.96,13,0,13,0.00
2013-10-19,52.0,44.2,38.0,44.7,38.1,30.6,100,81,47,30.07,29.92,17,1,18,0.13
2013-10-20,60.0,46.5,35.0,41.4,38.1,34.2,100,75,45,30.10,29.99,19,2,19,0.00
2013-10-21,60.0,49.5,39.0,47.7,42.0,36.6,93,76,55,30.08,29.98,17,0,17,0.00
2013-10-22,55.0,43.5,29.0,43.1,34.5,28.8,100,73,43,30.10,29.86,35,1,35,0.01
2013-10-23,46.0,39.1,35.0,37.7,30.7,25.6,91,73,47,30.15,29.93,19,2,23,0.01
2013-10-24,44.0,36.8,27.0,36.8,29.0,20.6,100,76,41,30.43,30.14,19,1,20,0.00
2013-10-25,47.0,32.6,19.0,30.5,23.1,19.0,100,72,37,30.56,30.32,10,0,10,0.00
2013-10-26,54.0,41.4,28.0,40.8,32.5,22.9,94,71,55,30.32,30.06,20,2,22,0.00
2013-10-27,60.0,45.1,28.0,42.1,34.1,27.5,100,69,36,30.16,30.03,10,0,10,0.00
2013-10-28,65.0,51.0,37.0,48.3,43.0,36.0,98,76,52,30.27,30.07,11,0,13,0.00
2013-10-29,57.0,49.6,40.0,56.0,49.0,38.6,100,98,83,30.31,30.11,17,0,17,0.18
2013-10-30,72.0,63.6,56.0,63.3,59.8,56.0,100,88,68,30.15,29.96,24,2,24,0.03
2013-10-31,65.0,60.6,52.0,62.9,58.7,49.8,100,94,81,29.95,29.47,31,12,39,0.64
2013-11-1,61.0,50.9,44.0,50.0,44.8,39.6,100,82,48,29.88,29.69,19,3,19,0.00
2013-11-2,53.0,42.5,34.0,42.3,37.4,31.9,98,83,60,30.21,29.87,27,2,27,0.00
2013-11-3,52.0,40.0,25.0,44.0,31.2,25.0,100,75,40,30.35,30.20,13,0,13,0.00
2013-11-4,55.0,46.4,40.0,45.9,39.2,34.0,97,77,52,30.31,30.22,19,1,20,0.02
2013-11-5,58.0,53.3,47.0,47.7,42.8,39.0,87,68,57,30.35,30.15,21,1,23,0.00
2013-11-6,56.0,48.5,35.0,53.0,44.3,33.5,100,87,60,30.25,30.03,27,5,28,0.45
2013-11-7,47.0,37.5,28.0,35.8,29.4,23.9,100,75,43,30.41,30.24,11,0,11,0.00
2013-11-8,53.0,38.7,23.0,39.4,28.3,23.0,100,70,37,30.42,30.21,13,0,14,0.00
2013-11-9,58.0,46.4,37.0,41.6,36.2,28.8,89,68,50,30.26,30.14,27,5,29,0.00
2013-11-10,55.0,43.4,31.0,39.8,30.0,22.3,100,64,29,30.42,30.25,14,1,14,0.00
2013-11-11,57.0,43.4,27.0,41.5,31.2,23.8,94,66,39,30.36,30.15,27,1,27,0.00
2013-11-12,40.0,27.5,19.0,32.8,19.2,13.6,93,72,47,30.73,30.31,32,2,32,0.00
2013-11-13,38.0,25.9,12.0,22.5,15.8,11.1,99,69,40,30.75,30.43,12,0,12,0.00
2013-11-14,49.0,36.5,23.0,21.0,17.6,15.1,74,49,28,30.44,30.15,19,1,21,0.00
2013-11-15,46.0,41.8,36.0,44.0,32.7,18.0,100,72,46,30.19,30.04,11,0,11,0.03
2013-11-16,62.0,54.3,44.0,60.0,52.4,42.5,100,93,84,30.06,29.78,27,7,29,0.01
2013-11-17,69.0,61.1,51.0,64.6,53.2,24.7,100,79,33,29.98,29.54,39,8,39,2.01
2013-11-18,53.0,44.5,31.0,39.5,29.6,21.5,90,58,33,30.31,29.96,27,1,27,0.00
2013-11-19,44.0,33.6,26.0,27.4,24.4,21.1,92,71,42,30.39,30.23,13,0,13,0.00
2013-11-20,51.0,39.0,25.0,32.6,28.5,22.2,91,68,47,30.25,30.11,11,0,13,0.00
2013-11-21,54.0,48.4,44.0,51.0,43.5,31.0,100,84,61,30.25,30.16,18,1,19,0.21
2013-11-22,51.0,41.6,33.0,51.0,41.0,30.1,100,98,89,30.47,30.17,25,7,25,0.07
2013-11-23,35.0,27.7,16.0,30.4,19.0,7.3,94,72,40,30.69,30.44,32,7,32,0.00
2013-11-24,26.0,18.3,10.0,12.4,7.4,5.2,83,63,44,30.77,30.48,16,0,17,0.00
2013-11-25,31.0,26.2,21.0,26.8,16.9,10.0,99,69,51,30.52,30.19,14,0,14,0.00
2013-11-26,34.0,28.7,20.0,28.8,24.0,9.8,100,84,64,30.22,30.00,31,6,32,0.01
2013-11-27,24.0,16.9,12.0,10.1,4.8,2.1,72,59,43,30.40,30.15,32,6,34,0.00
2013-11-28,41.0,26.7,10.0,25.6,15.9,3.7,87,65,44,30.51,30.32,22,1,22,0.00
2013-11-29,48.0,35.0,20.0,31.9,26.7,19.8,100,74,50,30.62,30.44,8,0,8,0.00
2013-11-30,55.0,42.7,32.0,32.5,27.1,24.1,79,57,31,30.46,30.20,20,0,20,0.00
2013-12-1,56.0,45.6,36.0,42.8,35.4,27.5,96,68,51,30.20,29.93,2,0,2,0.00
2013-12-2,58.0,45.3,30.0,48.7,41.8,30.0,100,89,68,29.95,29.72,7,0,8,0.00
2013-12-3,61.0,52.2,45.0,55.6,49.5,45.0,100,91,69,29.79,29.70,3,0,5,0.00
2013-12-4,71.0,63.3,51.0,63.0,59.2,48.9,100,88,70,29.81,29.65,27,7,27,0.00
2013-12-5,66.0,36.8,26.0,62.9,35.0,25.8,100,93,83,30.27,29.80,23,6,23,0.19
2013-12-6,27.0,20.4,16.0,26.0,20.3,15.3,100,99,93,30.53,30.18,19,4,19,0.00
2013-12-7,21.0,14.8,8.0,15.3,10.5,4.7,93,83,72,30.69,30.42,18,3,19,0.04
2013-12-8,30.0,24.8,18.0,30.0,24.1,13.8,100,97,88,30.44,30.06,15,3,16,0.69
2013-12-9,31.0,25.6,21.0,27.0,21.8,15.0,100,86,69,30.32,30.12,15,1,15,0.00
2013-12-10,27.0,19.9,16.0,23.0,17.8,14.9,100,92,76,30.41,30.26,14,2,14,0.00
2013-12-11,34.0,23.3,14.0,29.7,20.1,10.1,100,88,66,30.66,30.38,15,2,21,0.01
2013-12-12,26.0,16.7,4.0,16.9,7.7,1.0,91,69,42,30.69,30.38,6,0,6,0.00
2013-12-13,38.0,29.8,20.0,31.5,21.9,14.8,89,73,52,30.41,30.00,19,1,19,0.03
2013-12-14,35.0,33.1,29.0,35.0,32.6,27.8,100,98,90,30.13,29.82,25,5,25,0.70
2013-12-15,30.0,28.0,26.0,29.0,26.2,23.2,98,93,87,30.27,30.12,19,7,20,0.00
2013-12-16,45.0,38.0,30.0,39.3,34.5,29.5,98,88,74,30.14,30.05,15,2,19,0.00
2013-12-17,43.0,34.5,26.0,38.9,29.6,23.4,100,84,58,30.31,30.09,14,1,14,0.00
2013-12-18,48.0,37.4,22.0,33.0,25.4,17.2,97,65,34,30.36,30.08,19,3,21,0.00
2013-12-19,59.0,52.3,44.0,51.5,43.9,31.4,80,73,65,30.10,29.90,28,13,28,0.00
2013-12-20,64.0,60.8,56.0,63.1,58.1,50.5,100,91,75,29.93,29.80,29,9,31,0.02
2013-12-21,64.0,48.1,36.0,63.1,48.0,36.0,100,100,97,29.83,29.45,31,1,32,9.55
2013-12-22,45.0,38.3,32.0,44.5,37.6,29.9,100,97,90,30.25,29.64,1,0,8,0.00
2013-12-23,32.0,27.5,24.0,30.7,23.2,18.1,95,84,72,30.56,30.25,0,0,0,0.00
2013-12-24,23.0,17.7,11.0,19.2,10.3,6.2,87,73,57,30.68,30.44,0,0,2,0.00
2013-12-25,38.0,28.9,19.0,29.4,21.9,13.6,95,75,59,30.45,30.29,0,0,0,0.00
2013-12-26,43.0,33.9,25.0,32.4,27.8,24.8,100,80,54,30.47,30.34,0,0,0,0.00
2013-12-27,50.0,38.5,27.0,36.6,31.5,24.5,95,77,55,30.47,30.35,0,0,0,0.00
2013-12-28,47.0,39.6,32.0,37.9,32.8,29.4,94,78,54,30.35,29.99,0,0,0,0.00
2013-12-29,46.0,34.9,23.0,41.5,32.7,18.9,100,92,74,30.25,29.93,0,0,0,0.11
2013-12-30,26.0,19.6,15.0,19.7,14.5,10.3,87,80,55,30.36,30.25,0,0,0,1.32